Track KYOKKO 1 (EXOS A) now! 10-day predictions KYOKKO 1 (EXOS A) is classified as:
1 10664U 78014A 21017.83104575 -.00000066 00000-0 -36142-4 0 9995 2 10664 65.3734 63.7411 1898297 134.7840 242.4186 10.75497241670202